Regional Weather Roundup
Issued by NWS

Home | Current Version | Previous Version | Graphics & Text | Print | Product List | Glossary On
Versions: 1 2 3 4 5 6 7 8 9 10 11 12 13 14 15 16 17 18 19 20 21 22 23 24 25 26 27 28 29 30 31 32 33 34 35 36 37 38 39 40 41 42 43 44 45 46 47 48 49 50
972
ASUS44 KMEG 141410
RWRTN
TENNESSEE HOURLY STATE WEATHER ROUNDUP
NATIONAL WEATHER SERVICE MEMPHIS TN
800 AM CST SUN FEB 14 2016

TNZ002-004-019-021-049-052-054-088>092-141500-
WEST TENNESSEE

CITY           SKY/WX    TMP DP  RH WIND       PRES   REMARKS
MEMPHIS INTL   CLOUDY    35   9  33 SE13G20   30.18F WCI  26
NWS MEMPHIS      N/A     33 N/A N/A MISG        N/A
JACKSON        CLOUDY    30   9  41 E8        30.25S WCI  22
DYERSBURG      CLOUDY    28   9  43 E13       30.25S WCI  18
UNION CITY     CLOUDY    25  16  68 E8        30.24S WCI  16
PARIS          CLOUDY    25  10  54 E13       30.23F WCI  13
LEXINGTON      CLOUDY    27   7  43 VRB7      30.26S WCI  19
$$

TNZ008-025-027-028-033-062-065-066-141500-
NORTH MIDDLE TENNESSEE

CITY           SKY/WX    TMP DP  RH WIND       PRES   REMARKS
NASHVILLE      CLOUDY    27   8  44 E8        30.34F WCI  19
CLARKSVILLE    CLOUDY    26  11  52 E15       30.31F WCI  14
SMYRNA         CLOUDY    27   9  46 E8        30.36F WCI  19
COOKEVILLE     CLOUDY    27   9  46 VRB3      30.33R
CROSSVILLE     CLOUDY    22   4  46 E8        30.28S WCI  12
$$

TNZ061-075-076-078-094-096-097-141500-
SOUTH MIDDLE TENNESSEE

CITY           SKY/WX    TMP DP  RH WIND       PRES   REMARKS
FAYETTEVILLE   CLOUDY    28  10  47 E3        30.27F
TULLAHOMA      CLOUDY    27   7  43 NE3       30.31R
WINCHESTER     CLOUDY    28   7  40 SE13      30.29S WCI  18
MCMINNVILLE    CLOUDY    27   9  46 NE7       30.32R WCI  19
COLUMBIA       CLOUDY    27  12  54 E8        30.29S WCI  18
SHELBYVILLE    CLOUDY    28  12  50 NE7       30.33F WCI  21
$$

TNZ017-018-042-046-047-141500-
NORTHEAST TENNESSEE

CITY           SKY/WX    TMP DP  RH WIND       PRES   REMARKS
TRI CITIES     CLOUDY    19   5  54 NE5       30.38R WCI  12
$$

TNZ012-013-036-069-073-074-141500-
CENTRAL EAST TENNESSEE

CITY           SKY/WX    TMP DP  RH WIND       PRES   REMARKS
KNOXVILLE      CLOUDY    22   7  52 NE14      30.36F WCI   9
OAK RIDGE      CLOUDY    24   7  48 VRB5      30.39F WCI  18
GATLINBURG     CLOUDY    19   7  58 NE7       30.37F WCI  10
MORRISTOWN     PTSUNNY   19   7  58 E7        30.36F WCI  10
$$

TNZ083-085-099-141500-
SOUTHEAST TENNESSEE

CITY           SKY/WX    TMP DP  RH WIND       PRES   REMARKS
CHATTANOOGA    PTSUNNY   27   8  44 NE6       30.38S WCI  20
$$

SKY/WX REPORTED AS FAIR MEANS FEW OR NO CLOUDS BELOW
12 THOUSAND FEET.





USA.gov is the U.S. government's official web portal to all federal, state and local government web resources and services.